Observations for Trim Market St
| Time | AQI | Temp °C | Hum % | Pres Pa | CO μg/m³ | H₂S μg/m³ | NO μg/m³ | NO₂ μg/m³ | O₃ μg/m³ | SO₂ μg/m³ | PM1 μg/m³ | PM2.5 μg/m³ | PM10 μg/m³ |
|---|---|---|---|---|---|---|---|---|---|---|---|---|---|
| Saturday 22 August 2026 | |||||||||||||
| 12:19 | 2 | 21.7 | 45 | 65,038 | 0.12 | 0 | 1.84 | 34.06 | 52.35 | 0 | 0 | 2.14 | 2.36 |
| 12:18 | 2 | 21.7 | 45 | 65,025 | 0.17 | 0 | 1.83 | 46.2 | 43.99 | 0 | 0 | 2.66 | 2.92 |
| 12:13 | 2 | 21.5 | 46 | 64,954 | 0.18 | 0 | 7.07 | 24 | 58.98 | 0 | 0 | 2.65 | 3.66 |
| 12:11 | 2 | 21.5 | 45 | 64,925 | 0.25 | 0 | 5.15 | 45.15 | 45.96 | 0 | 0 | 2.65 | 2.92 |
| 12:10 | 2 | 21.4 | 45 | 64,915 | 0.44 | 0.67 | 4.4 | 77.57 | 21.92 | 0 | 0 | 2.65 | 2.89 |
| 12:09 | 2 | 21.4 | 45 | 64,896 | 0.46 | 0 | 2.92 | 73.2 | 24.86 | 0 | 0 | 2.65 | 2.92 |
| 12:08 | 2 | 21.4 | 45 | 64,845 | 0 | 0 | 1.89 | 25.4 | 59.38 | 0 | 1.43 | 4.22 | 5.98 |
| 12:07 | 2 | 21.4 | 45 | 64,839 | 0 | 0 | 1.54 | 16.35 | 71.09 | 0 | 0 | 2.14 | 2.35 |
| 12:06 | 2 | 21.4 | 45 | 64,854 | 0.09 | 0 | 1.51 | 13.32 | 63.95 | 0 | 0 | 2.13 | 2.35 |
| 12:03 | 2 | 21.3 | 45 | 64,839 | 0.15 | 0 | 1.44 | 25.02 | 59.34 | 0 | 0 | 3.18 | 3.5 |
| 12:02 | 2 | 21.3 | 45 | 64,801 | 0 | 0 | 1.49 | 14.79 | 70.77 | 0 | 0 | 3.18 | 3.5 |
| 12:01 | 2 | 21.4 | 45 | 64,809 | 0 | 0 | 1.44 | 21.99 | 61.73 | 0 | 1.43 | 3.71 | 4.43 |
| 11:54 | 2 | 21.6 | 44 | 64,977 | 0 | 0 | 1.83 | 6.24 | 66.2 | 0 | 0 | 2.7 | 2.97 |
| 11:53 | 2 | 21.7 | 44 | 65,013 | 0 | 0 | 1.8 | 14.86 | 92.94 | 0 | 0 | 2.18 | 2.4 |
| 11:52 | 2 | 21.7 | 44 | 65,029 | 0 | 0 | 1.81 | 31.25 | 58.75 | 0 | 0 | 3.22 | 4.41 |
| 11:49 | 2 | 21.8 | 44 | 65,056 | 0.09 | 0 | 1.82 | 14.83 | 63.52 | 0 | 0 | 2.7 | 2.97 |
| 11:43 | 2 | 22.1 | 44 | 65,172 | 0 | 0 | 1.23 | 9.21 | 67.44 | 0 | 0 | 2.72 | 2.83 |
| 11:42 | 2 | 22.1 | 44 | 65,176 | 0 | 0 | 1.27 | 14.15 | 81.53 | 0 | 0 | 2.2 | 2.42 |
| 11:41 | 2 | 22.1 | 44 | 65,213 | 0 | 0 | 1.27 | 15.01 | 77.28 | 0 | 0 | 2.72 | 3 |
| 11:39 | 2 | 22.2 | 44 | 65,207 | 0 | 0 | 1.12 | 9.76 | 70.61 | 0 | 0 | 2.21 | 2.82 |